Victorville, CA

1:20 PM PDT on August 21, 2017 (GMT -0700)
Southern California Logistics

Weather History for KVCV - February, 2014

Change the Weather History Date:

Thursday, February 27, 2014

  Actual Average (KSBD) Record (KSBD)
Temperature  
Mean Temperature 59 °F -  
Max Temperature 68 °F 70 °F 78 °F (2016)
Min Temperature 50 °F 43 °F 30 °F (2011)
Degree Days  
Heating Degree Days 6    
Growing Degree Days 9 (Base 50)    
Moisture  
Dew Point 36 °F    
Average Humidity 51    
Maximum Humidity 76    
Minimum Humidity 17    
Precipitation  
Precipitation 0.00 in - - ()
Sea Level Pressure  
Sea Level Pressure 29.91 in    
Wind  
Wind Speed 17 mph (SW)    
Max Wind Speed 28 mph    
Max Gust Speed 34 mph    
Visibility 10 miles    
Events      
Averages and records for this station are not official NWS values.
T = Trace of Precipitation, MM = Missing Value Source: NWS Daily Summary

Daily Weather History Graph

Daily Weather History Graph

Search for Another Location

Airport or City:

Trip Planner

Search our weather history database for the weather conditions in past years. The results will help you decide how hot, cold, wet, or windy it might be!

Date:

Astronomy

Feb. 27, 2014 Rise Set
Actual Time 6:21 AM PST 5:43 PM PST
Civil Twilight 5:55 AM PST 6:09 PM PST
Nautical Twilight 5:26 AM PST 6:38 PM PST
Astronomical Twilight 4:57 AM PST 7:07 PM PST
Moon 4:53 AM PST (2/27) 4:16 PM PST (2/27)
Length of Visible Light 12h 13m
Length of Day
11h 22m
Waning Crescent, 3% of the Moon is Illuminated
Feb 27
Waning Crescent
Mar 1
New
Mar 8
First Quarter
Mar 16
Full
Mar 23
Last Quarter

Hourly Weather History & Observations

Time (PST) Temp. Dew Point Humidity Pressure Visibility Wind Dir Wind Speed Gust Speed Precip Events Conditions
12:15 AM 51.8 °F 42.8 °F 71% 29.94 in 10.0 mi South 23.0 mph 26.5 mph N/A   Unknown
12:35 AM 51.8 °F 44.6 °F 76% 29.93 in 10.0 mi South 21.9 mph 27.6 mph N/A   Unknown
12:55 AM 51.8 °F 44.6 °F 76% 29.93 in 10.0 mi South 24.2 mph - N/A   Unknown
1:15 AM 51.8 °F 44.6 °F 76% 29.92 in 10.0 mi South 19.6 mph - N/A   Unknown
1:35 AM 51.8 °F 44.6 °F 76% 29.92 in 10.0 mi South 20.7 mph 25.3 mph N/A   Unknown
1:55 AM 51.8 °F 44.6 °F 76% 29.92 in 5.0 mi South 27.6 mph 34.5 mph N/A   Haze
2:15 AM 51.8 °F 44.6 °F 76% 29.91 in 10.0 mi South 19.6 mph 29.9 mph N/A   Unknown
2:35 AM 51.8 °F 44.6 °F 76% 29.91 in 10.0 mi South 16.1 mph 27.6 mph N/A   Unknown
2:55 AM 51.8 °F 42.8 °F 71% 29.90 in 10.0 mi South 19.6 mph 24.2 mph N/A   Unknown
3:15 AM 51.8 °F 42.8 °F 71% 29.90 in 10.0 mi South 18.4 mph 23.0 mph N/A   Unknown
3:35 AM 51.8 °F 42.8 °F 71% 29.92 in 10.0 mi South 15.0 mph 19.6 mph N/A   Unknown
3:55 AM 51.8 °F 42.8 °F 71% 29.91 in 10.0 mi South 13.8 mph 17.3 mph N/A   Unknown
4:15 AM 51.8 °F 42.8 °F 71% 29.91 in 10.0 mi South 17.3 mph 26.5 mph N/A   Unknown
4:35 AM 51.8 °F 42.8 °F 71% 29.87 in 10.0 mi South 24.2 mph 28.8 mph N/A   Unknown
4:55 AM 51.8 °F 42.8 °F 71% 29.87 in 10.0 mi South 21.9 mph - N/A   Unknown
5:15 AM 51.8 °F 42.8 °F 71% 29.90 in 10.0 mi SSW 10.4 mph - N/A   Unknown
5:35 AM 51.8 °F 42.8 °F 71% 29.90 in 10.0 mi South 15.0 mph - N/A   Unknown
5:55 AM 50.0 °F 42.8 °F 76% 29.89 in 10.0 mi South 19.6 mph - N/A   Unknown
6:15 AM 51.8 °F 42.8 °F 71% 29.90 in 10.0 mi SSW 13.8 mph - N/A   Unknown
6:35 AM 51.8 °F 42.8 °F 71% 29.93 in 10.0 mi SW 10.4 mph - N/A   Unknown
6:55 AM 51.8 °F 42.8 °F 71% 29.96 in 10.0 mi WSW 9.2 mph - N/A   Unknown
7:15 AM 51.8 °F 44.6 °F 76% 29.97 in 10.0 mi WNW 12.7 mph 19.6 mph N/A   Unknown
7:35 AM 51.8 °F 42.8 °F 71% 29.97 in 10.0 mi West 17.3 mph 20.7 mph N/A   Unknown
7:55 AM 51.8 °F 42.8 °F 71% 29.98 in 10.0 mi West 11.5 mph - N/A   Unknown
8:15 AM 53.6 °F 42.8 °F 67% 29.97 in 10.0 mi West 15.0 mph - N/A   Unknown
8:35 AM 55.4 °F 41.0 °F 58% 29.98 in 10.0 mi WSW 15.0 mph 18.4 mph N/A   Unknown
8:55 AM 55.4 °F 41.0 °F 58% 29.98 in 10.0 mi West 12.7 mph 19.6 mph N/A   Unknown
9:15 AM 57.2 °F 41.0 °F 55% 30.00 in 10.0 mi West 9.2 mph 16.1 mph N/A   Unknown
9:35 AM 57.2 °F 39.2 °F 51% 29.99 in 10.0 mi WSW 12.7 mph - N/A   Unknown
9:55 AM 60.8 °F 35.6 °F 39% 30.00 in 10.0 mi WSW 8.1 mph - N/A   Unknown
10:15 AM 60.8 °F 24.8 °F 25% 29.99 in 10.0 mi West 11.5 mph - N/A   Unknown
10:35 AM 62.6 °F 24.8 °F 24% 29.99 in 10.0 mi West 15.0 mph 20.7 mph N/A   Unknown
10:55 AM 62.6 °F 24.8 °F 24% 29.99 in 10.0 mi West 12.7 mph 18.4 mph N/A   Unknown
11:15 AM 62.6 °F 21.2 °F 20% 29.98 in 10.0 mi West 8.1 mph 18.4 mph N/A   Unknown
11:35 AM 62.6 °F 21.2 °F 20% 29.98 in 10.0 mi West 9.2 mph - N/A   Unknown
11:55 AM 64.4 °F 23.0 °F 21% 29.97 in 10.0 mi WSW 9.2 mph - N/A   Unknown
12:15 PM 64.4 °F 23.0 °F 21% 29.96 in 10.0 mi WSW 6.9 mph 16.1 mph N/A   Unknown
12:35 PM 64.4 °F 24.8 °F 22% 29.95 in 10.0 mi West 8.1 mph - N/A   Unknown
12:55 PM 64.4 °F 26.6 °F 24% 29.95 in 10.0 mi West 10.4 mph - N/A   Unknown
1:15 PM 66.2 °F 26.6 °F 23% 29.93 in 10.0 mi WSW 12.7 mph - N/A   Unknown
1:35 PM 66.2 °F 26.6 °F 23% 29.92 in 10.0 mi WSW 11.5 mph 16.1 mph N/A   Unknown
1:55 PM 66.2 °F 26.6 °F 23% 29.91 in 10.0 mi West 11.5 mph 20.7 mph N/A   Unknown
2:15 PM 66.2 °F 26.6 °F 23% 29.90 in 10.0 mi WSW 9.2 mph - N/A   Unknown
2:35 PM 66.2 °F 26.6 °F 23% 29.89 in 10.0 mi WSW 12.7 mph 19.6 mph N/A   Unknown
2:55 PM 68.0 °F 26.6 °F 21% 29.89 in 10.0 mi West 16.1 mph 20.7 mph N/A   Unknown
3:15 PM 68.0 °F 24.8 °F 20% 29.88 in 10.0 mi West 15.0 mph 23.0 mph N/A   Unknown
3:35 PM 66.2 °F 24.8 °F 21% 29.88 in 10.0 mi West 17.3 mph 24.2 mph N/A   Unknown
3:55 PM 66.2 °F 21.2 °F 18% 29.87 in 10.0 mi West 19.6 mph 24.2 mph N/A   Unknown
4:15 PM 66.2 °F 19.4 °F 17% 29.86 in 10.0 mi West 15.0 mph 20.7 mph N/A   Unknown
4:35 PM 64.4 °F 21.2 °F 19% 29.85 in 10.0 mi WNW 12.7 mph 18.4 mph N/A   Unknown
4:55 PM 64.4 °F 24.8 °F 22% 29.85 in 10.0 mi West 13.8 mph - N/A   Unknown
5:15 PM 62.6 °F 26.6 °F 26% 29.84 in 10.0 mi West 11.5 mph 16.1 mph N/A   Unknown
5:35 PM 60.8 °F 26.6 °F 27% 29.84 in 10.0 mi WSW 9.2 mph - N/A   Unknown
5:55 PM 60.8 °F 32.0 °F 34% 29.84 in 10.0 mi WSW 8.1 mph - N/A   Unknown
6:15 PM 57.2 °F 35.6 °F 44% 29.85 in 10.0 mi SW 10.4 mph - N/A   Unknown
6:35 PM 55.4 °F 35.6 °F 47% 29.85 in 10.0 mi SSW 8.1 mph - N/A   Unknown
6:50 PM 55.4 °F 37.4 °F 51% 29.85 in 10.0 mi SSW 8.1 mph - N/A   Unknown
7:15 PM 53.6 °F 39.2 °F 58% 29.84 in 10.0 mi South 12.7 mph - N/A   Unknown
7:35 PM 55.4 °F 39.2 °F 54% 29.85 in 10.0 mi South 13.8 mph 18.4 mph N/A   Unknown
7:55 PM 55.4 °F 39.2 °F 54% 29.86 in 10.0 mi SSE 8.1 mph - N/A   Unknown
8:15 PM 55.4 °F 37.4 °F 51% 29.86 in 10.0 mi SSE 11.5 mph - N/A   Unknown
8:35 PM 55.4 °F 42.8 °F 63% 29.85 in 10.0 mi South 18.4 mph 21.9 mph N/A   Unknown
8:55 PM 53.6 °F 42.8 °F 67% 29.85 in 10.0 mi South 21.9 mph 26.5 mph N/A   Unknown
9:15 PM 53.6 °F 42.8 °F 67% 29.85 in 10.0 mi South 20.7 mph 26.5 mph N/A   Unknown
9:35 PM 53.6 °F 42.8 °F 67% 29.86 in 10.0 mi SSE 18.4 mph 25.3 mph N/A   Unknown
9:55 PM 53.6 °F 42.8 °F 67% 29.86 in 10.0 mi SSE 13.8 mph - N/A   Unknown
10:15 PM 53.6 °F 41.0 °F 62% 29.86 in 10.0 mi SSE 17.3 mph 23.0 mph N/A   Unknown
10:35 PM 53.6 °F 41.0 °F 62% 29.85 in 10.0 mi South 20.7 mph 26.5 mph N/A   Unknown
10:55 PM 53.6 °F 41.0 °F 62% 29.85 in 10.0 mi South 21.9 mph 26.5 mph N/A   Unknown
11:15 PM 53.6 °F 39.2 °F 58% 29.86 in 10.0 mi SSE 17.3 mph 25.3 mph N/A   Unknown
11:30 PM 53.6 °F 41.0 °F 62% 29.85 in 10.0 mi South 16.1 mph 23.0 mph N/A   Unknown
11:55 PM 53.6 °F 39.2 °F 58% 29.84 in 10.0 mi South 23.0 mph 26.5 mph N/A   Unknown